N651CX KHPN-KRDU

Flight info

Callsign N651CX
Flight time 1h 19m
Altitude 43000
Route WHITE Q409 VILLS NALES Q141 HOUKY TAQLE3
Aircraft C750/M-SBDE3FGHRWXY/S

Departure

Time 2026-05-04 01:12
Airport Westchester County Airport (KHPN)

Arrival

Time 2026-05-04 02:31
Airport Raleigh-Durham International Airport (KRDU)
Time Latitude Longitude Altitude Speed Heading
2026-05-04 00:54 41.06366 -73.71178 417 ft 0 kts 163°
2026-05-04 00:59 41.06365 -73.71176 417 ft 1 kts 141°
2026-05-04 00:59 41.06368 -73.71167 413 ft 1 kts 47°
2026-05-04 00:59 41.06375 -73.71168 415 ft 0 kts 357°
2026-05-04 01:00 41.06376 -73.71169 417 ft 0 kts 352°
2026-05-04 01:00 41.06384 -73.71175 415 ft 4 kts 330°
2026-05-04 01:00 41.06423 -73.71204 417 ft 7 kts 339°
2026-05-04 01:00 41.06469 -73.71222 415 ft 8 kts 354°
2026-05-04 01:01 41.06505 -73.71181 415 ft 9 kts 103°
2026-05-04 01:01 41.06488 -73.71090 417 ft 10 kts 101°
2026-05-04 01:01 41.06475 -73.71011 417 ft 8 kts 103°
2026-05-04 01:01 41.06463 -73.70937 417 ft 8 kts 102°
2026-05-04 01:02 41.06451 -73.70867 417 ft 8 kts 103°
2026-05-04 01:02 41.06439 -73.70797 412 ft 8 kts 101°
2026-05-04 01:02 41.06427 -73.70730 411 ft 7 kts 111°
2026-05-04 01:02 41.06384 -73.70684 411 ft 9 kts 151°
2026-05-04 01:03 41.06326 -73.70639 409 ft 11 kts 149°
2026-05-04 01:03 41.06256 -73.70588 416 ft 12 kts 151°
2026-05-04 01:03 41.06177 -73.70527 412 ft 14 kts 150°
2026-05-04 01:03 41.06086 -73.70458 416 ft 16 kts 150°
2026-05-04 01:04 41.05994 -73.70386 417 ft 14 kts 149°
2026-05-04 01:04 41.05954 -73.70308 416 ft 9 kts 98°
2026-05-04 01:04 41.05966 -73.70236 416 ft 6 kts 60°
2026-05-04 01:04 41.05968 -73.70231 411 ft 0 kts 61°
2026-05-04 01:05 41.05970 -73.70225 413 ft 1 kts 61°
2026-05-04 01:05 41.05977 -73.70209 414 ft 3 kts 60°
2026-05-04 01:05 41.05978 -73.70206 415 ft 0 kts 61°
2026-05-04 01:05 41.05973 -73.70218 412 ft 4 kts 60°
2026-05-04 01:06 41.05964 -73.70239 416 ft 0 kts 60°
2026-05-04 01:10 41.05969 -73.70227 412 ft 5 kts 60°
2026-05-04 01:10 41.05992 -73.70175 415 ft 6 kts 60°
2026-05-04 01:10 41.06025 -73.70158 415 ft 5 kts 336°
2026-05-04 01:10 41.06027 -73.70160 415 ft 0 kts 331°
2026-05-04 01:11 41.06040 -73.70170 415 ft 11 kts 331°
2026-05-04 01:11 41.06360 -73.70412 414 ft 109 kts 330°
2026-05-04 01:11 41.07164 -73.71029 810 ft 136 kts 329°
2026-05-04 01:12 41.07990 -73.71719 1498 ft 145 kts 313°
2026-05-04 01:12 41.08511 -73.72887 2132 ft 156 kts 284°
2026-05-04 01:12 41.08587 -73.74385 2840 ft 170 kts 271°
2026-05-04 01:12 41.08480 -73.76014 3383 ft 189 kts 265°
2026-05-04 01:13 41.08259 -73.77850 3899 ft 211 kts 263°
2026-05-04 01:13 41.07949 -73.79850 4531 ft 233 kts 262°
2026-05-04 01:13 41.07589 -73.82021 5378 ft 245 kts 262°
2026-05-04 01:13 41.07206 -73.84248 6429 ft 251 kts 261°
2026-05-04 01:14 41.06804 -73.86508 7421 ft 258 kts 262°
2026-05-04 01:14 41.06394 -73.88844 8551 ft 262 kts 262°
2026-05-04 01:14 41.05944 -73.91160 9875 ft 259 kts 261°
2026-05-04 01:14 41.05453 -73.93500 10662 ft 269 kts 261°
2026-05-04 01:15 41.04939 -73.95990 11014 ft 295 kts 261°
2026-05-04 01:15 41.04397 -73.98680 11027 ft 307 kts 261°
2026-05-04 01:15 41.03845 -74.01450 11026 ft 322 kts 260°
2026-05-04 01:15 41.03267 -74.04382 11028 ft 335 kts 260°
2026-05-04 01:16 41.02672 -74.07412 11027 ft 344 kts 260°
2026-05-04 01:16 41.02064 -74.10509 11035 ft 351 kts 260°
2026-05-04 01:16 41.01290 -74.13607 10987 ft 363 kts 248°
2026-05-04 01:16 40.99625 -74.16209 10990 ft 383 kts 224°
2026-05-04 01:17 40.97185 -74.17810 11022 ft 397 kts 204°
2026-05-04 01:17 40.94532 -74.18782 11052 ft 402 kts 198°
2026-05-04 01:17 40.91792 -74.19606 11050 ft 406 kts 197°
2026-05-04 01:17 40.89017 -74.20388 11033 ft 409 kts 195°
2026-05-04 01:18 40.86151 -74.20651 11029 ft 417 kts 182°
2026-05-04 01:18 40.83235 -74.20407 11034 ft 421 kts 178°
2026-05-04 01:18 40.80312 -74.20021 11040 ft 423 kts 177°
2026-05-04 01:18 40.77379 -74.19596 11045 ft 422 kts 176°
2026-05-04 01:19 40.74503 -74.19167 11046 ft 421 kts 176°
2026-05-04 01:19 40.71586 -74.18730 11045 ft 420 kts 176°
2026-05-04 01:19 40.68688 -74.18296 11045 ft 419 kts 176°
2026-05-04 01:19 40.65791 -74.17863 11032 ft 418 kts 176°
2026-05-04 01:20 40.62900 -74.17437 11039 ft 417 kts 176°
2026-05-04 01:20 40.60044 -74.17020 11037 ft 416 kts 176°
2026-05-04 01:20 40.57169 -74.16600 11039 ft 414 kts 176°
2026-05-04 01:20 40.54313 -74.16183 11041 ft 409 kts 176°
2026-05-04 01:21 40.51492 -74.15766 11040 ft 405 kts 176°
2026-05-04 01:21 40.48731 -74.15358 11036 ft 403 kts 176°
2026-05-04 01:21 40.45944 -74.14948 11018 ft 402 kts 176°
2026-05-04 01:21 40.43170 -74.14545 11037 ft 400 kts 176°
2026-05-04 01:22 40.40397 -74.14150 11052 ft 401 kts 176°
2026-05-04 01:22 40.37616 -74.13757 11064 ft 401 kts 176°
2026-05-04 01:22 40.34891 -74.13370 11872 ft 382 kts 176°
2026-05-04 01:22 40.32322 -74.13000 13010 ft 367 kts 176°
2026-05-04 01:23 40.29790 -74.12640 13608 ft 372 kts 176°
2026-05-04 01:23 40.27198 -74.12279 14206 ft 374 kts 176°
2026-05-04 01:23 40.24606 -74.11913 14836 ft 375 kts 177°
2026-05-04 01:23 40.22015 -74.11616 15294 ft 377 kts 183°
2026-05-04 01:24 40.19461 -74.12418 15452 ft 377 kts 210°
2026-05-04 01:24 40.17257 -74.14187 16185 ft 368 kts 219°
2026-05-04 01:24 40.15156 -74.16105 16789 ft 369 kts 219°
2026-05-04 01:24 40.12990 -74.17863 17363 ft 374 kts 213°
2026-05-04 01:25 40.10614 -74.19298 18011 ft 378 kts 208°
2026-05-04 01:25 40.08153 -74.20576 18586 ft 380 kts 207°
2026-05-04 01:25 40.05727 -74.21973 19088 ft 380 kts 211°
2026-05-04 01:25 40.03355 -74.23512 19618 ft 381 kts 212°
2026-05-04 01:26 40.00979 -74.25044 20162 ft 381 kts 214°
2026-05-04 01:26 39.98783 -74.26961 20676 ft 378 kts 223°
2026-05-04 01:26 39.96657 -74.28993 21217 ft 380 kts 222°
2026-05-04 01:26 39.94529 -74.30986 21746 ft 382 kts 222°
2026-05-04 01:27 39.92373 -74.33032 22263 ft 384 kts 222°
2026-05-04 01:27 39.90217 -74.35103 22772 ft 386 kts 223°
2026-05-04 01:27 39.88041 -74.37181 23235 ft 390 kts 222°
2026-05-04 01:27 39.85837 -74.39267 23698 ft 392 kts 222°
2026-05-04 01:28 39.83628 -74.41359 24152 ft 392 kts 223°
2026-05-04 01:28 39.81495 -74.43538 24588 ft 388 kts 229°
2026-05-04 01:28 39.79593 -74.46013 24985 ft 386 kts 233°
2026-05-04 01:28 39.77716 -74.48528 25411 ft 389 kts 232°
2026-05-04 01:29 39.75802 -74.51043 25836 ft 391 kts 232°
2026-05-04 01:29 39.73911 -74.53535 26251 ft 392 kts 233°
2026-05-04 01:29 39.71999 -74.56081 26669 ft 394 kts 233°
2026-05-04 01:29 39.70073 -74.58638 27104 ft 397 kts 233°
2026-05-04 01:30 39.68128 -74.61204 27544 ft 399 kts 233°
2026-05-04 01:30 39.66179 -74.63775 27956 ft 401 kts 233°
2026-05-04 01:30 39.64219 -74.66367 28382 ft 403 kts 233°
2026-05-04 01:30 39.62235 -74.68985 28809 ft 406 kts 233°
2026-05-04 01:31 39.60273 -74.71570 29216 ft 408 kts 233°
2026-05-04 01:31 39.58275 -74.74201 29634 ft 410 kts 233°
2026-05-04 01:31 39.56261 -74.76851 30027 ft 412 kts 233°
2026-05-04 01:31 39.54236 -74.79514 30372 ft 414 kts 233°
2026-05-04 01:32 39.52229 -74.82151 30818 ft 416 kts 233°
2026-05-04 01:32 39.50198 -74.84814 31513 ft 413 kts 233°
2026-05-04 01:32 39.48183 -74.87449 32350 ft 408 kts 233°
2026-05-04 01:32 39.46200 -74.90047 33221 ft 401 kts 233°
2026-05-04 01:33 39.44271 -74.92574 34073 ft 396 kts 232°
2026-05-04 01:33 39.42339 -74.95105 34658 ft 395 kts 232°
2026-05-04 01:33 39.40391 -74.97654 35145 ft 397 kts 232°
2026-05-04 01:33 39.38441 -75.00199 35637 ft 399 kts 232°
2026-05-04 01:34 39.36470 -75.02770 35908 ft 407 kts 232°
2026-05-04 01:34 39.32431 -75.08033 35908 ft 417 kts 231°
2026-05-04 01:35 39.28981 -75.12521 35863 ft 430 kts 231°
2026-05-04 01:35 39.23993 -75.18998 35915 ft 441 kts 231°
2026-05-04 01:36 39.20376 -75.23679 35904 ft 443 kts 231°
2026-05-04 01:36 39.16019 -75.29316 35852 ft 444 kts 231°
2026-05-04 01:37 39.11668 -75.34934 35968 ft 438 kts 231°
2026-05-04 01:37 39.07377 -75.40464 36021 ft 434 kts 231°
2026-05-04 01:38 39.03148 -75.45907 36021 ft 431 kts 231°
2026-05-04 01:38 38.98903 -75.51357 36021 ft 429 kts 231°
2026-05-04 01:39 38.94680 -75.56772 36025 ft 427 kts 231°
2026-05-04 01:39 38.90549 -75.62157 35981 ft 421 kts 235°
2026-05-04 01:40 38.87247 -75.68235 36032 ft 410 kts 245°
2026-05-04 01:40 38.84398 -75.74574 36043 ft 409 kts 244°
2026-05-04 01:41 38.81563 -75.80848 36046 ft 408 kts 244°
2026-05-04 01:41 38.78718 -75.87156 36050 ft 407 kts 244°
2026-05-04 01:42 38.75869 -75.93429 36046 ft 407 kts 244°
2026-05-04 01:42 38.72376 -75.99166 36022 ft 415 kts 232°
2026-05-04 01:43 38.67894 -76.03976 36042 ft 422 kts 225°
2026-05-04 01:43 38.63252 -76.08507 36066 ft 421 kts 225°
2026-05-04 01:44 38.58581 -76.13039 36068 ft 420 kts 225°
2026-05-04 01:44 38.53943 -76.17536 36064 ft 422 kts 225°
2026-05-04 01:45 38.49245 -76.22084 36056 ft 423 kts 225°
2026-05-04 01:45 38.42206 -76.28883 36063 ft 425 kts 225°
2026-05-04 01:46 38.37453 -76.33466 36062 ft 428 kts 225°
2026-05-04 01:46 38.32711 -76.38027 36065 ft 430 kts 225°
2026-05-04 01:47 38.28123 -76.42866 36053 ft 423 kts 232°
2026-05-04 01:47 38.24083 -76.48313 36063 ft 424 kts 233°
2026-05-04 01:48 38.20006 -76.53757 36080 ft 425 kts 233°
2026-05-04 01:48 38.15965 -76.59192 36077 ft 426 kts 233°
2026-05-04 01:49 38.11870 -76.64663 36033 ft 426 kts 232°
2026-05-04 01:49 38.07781 -76.70130 36058 ft 426 kts 232°
2026-05-04 01:50 38.03716 -76.75548 36056 ft 426 kts 232°
2026-05-04 01:50 37.99531 -76.80894 36037 ft 430 kts 227°
2026-05-04 01:51 37.94561 -76.85204 36047 ft 443 kts 217°
2026-05-04 01:51 37.88768 -76.88203 36089 ft 452 kts 208°
2026-05-04 01:52 37.82887 -76.90892 36096 ft 451 kts 209°
2026-05-04 01:52 37.76960 -76.93574 36099 ft 451 kts 208°
2026-05-04 01:53 37.71038 -76.96255 36090 ft 451 kts 208°
2026-05-04 01:53 37.65155 -76.98914 35628 ft 450 kts 208°
2026-05-04 01:54 37.62218 -77.00231 35255 ft 444 kts 208°
2026-05-04 01:54 37.59310 -77.01542 34879 ft 440 kts 209°
2026-05-04 01:54 37.56451 -77.02836 34522 ft 435 kts 209°
2026-05-04 01:54 37.53606 -77.04116 34165 ft 430 kts 209°
2026-05-04 01:55 37.50801 -77.05375 33763 ft 425 kts 209°
2026-05-04 01:55 37.48065 -77.06605 33356 ft 420 kts 209°
2026-05-04 01:55 37.45322 -77.07840 32905 ft 416 kts 209°
2026-05-04 01:55 37.42608 -77.09058 32506 ft 412 kts 209°
2026-05-04 01:56 37.39913 -77.10265 32090 ft 408 kts 209°
2026-05-04 01:56 37.37250 -77.11459 31576 ft 404 kts 209°
2026-05-04 01:56 37.34608 -77.12642 31070 ft 401 kts 209°
2026-05-04 01:56 37.32043 -77.13920 30562 ft 392 kts 214°
2026-05-04 01:57 37.29569 -77.15376 30060 ft 391 kts 214°
2026-05-04 01:57 37.27105 -77.16829 29495 ft 392 kts 214°
2026-05-04 01:57 37.24657 -77.18239 28908 ft 392 kts 213°
2026-05-04 01:57 37.22178 -77.19658 28376 ft 391 kts 213°
2026-05-04 01:58 37.19703 -77.21091 27844 ft 390 kts 213°
2026-05-04 01:58 37.17237 -77.22523 27321 ft 389 kts 213°
2026-05-04 01:58 37.14829 -77.24055 26790 ft 382 kts 218°
2026-05-04 01:58 37.12580 -77.25728 26291 ft 380 kts 219°
2026-05-04 01:59 37.10313 -77.27427 25795 ft 378 kts 218°
2026-05-04 01:59 37.08045 -77.29092 25308 ft 377 kts 218°
2026-05-04 01:59 37.05788 -77.30737 24830 ft 375 kts 218°
2026-05-04 01:59 37.03541 -77.32390 24358 ft 373 kts 218°
2026-05-04 02:00 37.01313 -77.34055 23859 ft 371 kts 218°
2026-05-04 02:00 36.99102 -77.35717 23345 ft 370 kts 218°
2026-05-04 02:00 36.96917 -77.37343 22805 ft 368 kts 218°
2026-05-04 02:00 36.94712 -77.38977 22284 ft 366 kts 218°
2026-05-04 02:01 36.92519 -77.40608 21907 ft 369 kts 218°
2026-05-04 02:01 36.90309 -77.42256 21527 ft 368 kts 217°
2026-05-04 02:01 36.88116 -77.43880 21144 ft 365 kts 217°
2026-05-04 02:01 36.85937 -77.45494 20769 ft 362 kts 217°
2026-05-04 02:02 36.83770 -77.47103 20395 ft 360 kts 217°
2026-05-04 02:02 36.81644 -77.48678 20031 ft 358 kts 217°
2026-05-04 02:02 36.79507 -77.50255 19649 ft 356 kts 217°
2026-05-04 02:02 36.77371 -77.51830 19287 ft 355 kts 217°
2026-05-04 02:03 36.75243 -77.53401 18931 ft 354 kts 217°
2026-05-04 02:03 36.73117 -77.54969 18572 ft 354 kts 217°
2026-05-04 02:03 36.70989 -77.56537 18195 ft 354 kts 217°
2026-05-04 02:03 36.68871 -77.58096 17795 ft 353 kts 217°
2026-05-04 02:04 36.66776 -77.59637 17402 ft 353 kts 216°
2026-05-04 02:04 36.64662 -77.61192 17009 ft 352 kts 216°
2026-05-04 02:04 36.62546 -77.62747 16619 ft 352 kts 216°
2026-05-04 02:04 36.60442 -77.64291 16235 ft 351 kts 216°
2026-05-04 02:05 36.58355 -77.65823 15834 ft 350 kts 216°
2026-05-04 02:05 36.56256 -77.67363 15459 ft 350 kts 216°
2026-05-04 02:05 36.54157 -77.68902 15084 ft 350 kts 216°
2026-05-04 02:05 36.52137 -77.70551 14685 ft 343 kts 225°
2026-05-04 02:06 36.50428 -77.72597 14326 ft 340 kts 230°
2026-05-04 02:06 36.48723 -77.74641 14058 ft 338 kts 229°
2026-05-04 02:06 36.47036 -77.76608 13819 ft 334 kts 228°
2026-05-04 02:06 36.45356 -77.78585 13552 ft 330 kts 229°
2026-05-04 02:07 36.43703 -77.80553 13288 ft 328 kts 229°
2026-05-04 02:07 36.42061 -77.82503 13005 ft 326 kts 229°
2026-05-04 02:07 36.40413 -77.84446 12741 ft 325 kts 229°
2026-05-04 02:07 36.38775 -77.86377 12483 ft 324 kts 229°
2026-05-04 02:08 36.37164 -77.88280 12223 ft 323 kts 228°
2026-05-04 02:08 36.35535 -77.90204 11969 ft 322 kts 228°
2026-05-04 02:08 36.33911 -77.92118 11713 ft 321 kts 228°
2026-05-04 02:08 36.32293 -77.94024 11464 ft 321 kts 228°
2026-05-04 02:09 36.30691 -77.95910 11215 ft 320 kts 228°
2026-05-04 02:09 36.29076 -77.97811 10970 ft 320 kts 228°
2026-05-04 02:09 36.27457 -77.99717 10725 ft 318 kts 228°
2026-05-04 02:09 36.25873 -78.01574 10482 ft 309 kts 228°
2026-05-04 02:10 36.24324 -78.03392 10237 ft 303 kts 228°
2026-05-04 02:10 36.22977 -78.05294 9969 ft 291 kts 243°
2026-05-04 02:10 36.22150 -78.07463 10003 ft 269 kts 250°
2026-05-04 02:10 36.21373 -78.09575 10012 ft 271 kts 249°
2026-05-04 02:11 36.20613 -78.11711 9869 ft 271 kts 252°
2026-05-04 02:11 36.19907 -78.13876 9612 ft 270 kts 251°
2026-05-04 02:11 36.19173 -78.15990 9352 ft 270 kts 250°
2026-05-04 02:11 36.18448 -78.18122 9097 ft 268 kts 251°
2026-05-04 02:12 36.17742 -78.20246 9017 ft 265 kts 251°
2026-05-04 02:12 36.17032 -78.22374 9024 ft 267 kts 251°
2026-05-04 02:12 36.16319 -78.24490 9018 ft 265 kts 251°
2026-05-04 02:12 36.15610 -78.26590 9020 ft 263 kts 251°
2026-05-04 02:13 36.14832 -78.28635 8989 ft 267 kts 241°
2026-05-04 02:13 36.13691 -78.30439 9035 ft 270 kts 235°
2026-05-04 02:13 36.12514 -78.32272 9038 ft 271 kts 236°
2026-05-04 02:13 36.11358 -78.34119 9042 ft 272 kts 236°
2026-05-04 02:14 36.10193 -78.35975 9041 ft 273 kts 236°
2026-05-04 02:14 36.09035 -78.37802 9040 ft 274 kts 236°
2026-05-04 02:14 36.07861 -78.39654 9042 ft 274 kts 236°
2026-05-04 02:14 36.06685 -78.41512 9042 ft 274 kts 236°
2026-05-04 02:15 36.05555 -78.43298 9038 ft 275 kts 236°
2026-05-04 02:15 36.04376 -78.45157 9040 ft 275 kts 236°
2026-05-04 02:15 36.03200 -78.47011 9036 ft 275 kts 236°
2026-05-04 02:15 36.02018 -78.48874 9035 ft 275 kts 236°
2026-05-04 02:16 36.00849 -78.50715 9032 ft 275 kts 236°
2026-05-04 02:16 35.99580 -78.52459 8998 ft 278 kts 226°
2026-05-04 02:16 35.98075 -78.53950 9022 ft 277 kts 223°
2026-05-04 02:16 35.96553 -78.55438 8905 ft 281 kts 223°
2026-05-04 02:17 35.95023 -78.56978 8679 ft 286 kts 223°
2026-05-04 02:17 35.93574 -78.58442 8455 ft 291 kts 223°
2026-05-04 02:17 35.91916 -78.60099 8188 ft 296 kts 223°
2026-05-04 02:17 35.90308 -78.61700 7923 ft 298 kts 223°
2026-05-04 02:18 35.88736 -78.63265 7661 ft 286 kts 223°
2026-05-04 02:18 35.87221 -78.64777 7407 ft 276 kts 223°
2026-05-04 02:18 35.85786 -78.66258 7147 ft 265 kts 227°
2026-05-04 02:18 35.84499 -78.67850 7004 ft 256 kts 229°
2026-05-04 02:19 35.83260 -78.69352 7007 ft 243 kts 228°
2026-05-04 02:19 35.82067 -78.70762 6987 ft 231 kts 228°
2026-05-04 02:19 35.80952 -78.72101 6984 ft 222 kts 229°
2026-05-04 02:19 35.79823 -78.73479 6593 ft 228 kts 229°
2026-05-04 02:20 35.78705 -78.74835 6225 ft 228 kts 228°
2026-05-04 02:20 35.77588 -78.76210 5822 ft 226 kts 228°
2026-05-04 02:20 35.76475 -78.77590 5438 ft 225 kts 228°
2026-05-04 02:20 35.75366 -78.78942 5069 ft 224 kts 226°
2026-05-04 02:21 35.74255 -78.80237 5001 ft 214 kts 226°
2026-05-04 02:21 35.73176 -78.81486 4999 ft 211 kts 225°
2026-05-04 02:21 35.72114 -78.82720 4994 ft 209 kts 225°
2026-05-04 02:21 35.71085 -78.83937 5004 ft 207 kts 226°
2026-05-04 02:22 35.70050 -78.85164 5005 ft 206 kts 226°
2026-05-04 02:22 35.69023 -78.86382 5001 ft 205 kts 226°
2026-05-04 02:22 35.67995 -78.87604 5007 ft 204 kts 225°
2026-05-04 02:22 35.66978 -78.88814 5015 ft 204 kts 226°
2026-05-04 02:23 35.65965 -78.90016 5019 ft 199 kts 226°
2026-05-04 02:23 35.65307 -78.90796 5016 ft 198 kts 226°
2026-05-04 02:23 35.63985 -78.92367 5020 ft 200 kts 226°
2026-05-04 02:23 35.62984 -78.93563 5017 ft 200 kts 227°
2026-05-04 02:24 35.62527 -78.94532 4952 ft 199 kts 254°
2026-05-04 02:24 35.62754 -78.96175 4936 ft 203 kts 299°
2026-05-04 02:24 35.64107 -78.97744 5055 ft 201 kts 316°
2026-05-04 02:24 35.64831 -78.98496 5049 ft 202 kts 316°
2026-05-04 02:25 35.65896 -78.99614 5047 ft 204 kts 316°
2026-05-04 02:25 35.66989 -79.00756 5043 ft 205 kts 317°
2026-05-04 02:25 35.68354 -79.01327 4973 ft 215 kts 355°
2026-05-04 02:25 35.69785 -79.00805 5022 ft 215 kts 23°
2026-05-04 02:26 35.71132 -78.99961 4862 ft 221 kts 27°
2026-05-04 02:26 35.72343 -78.98796 4559 ft 226 kts 43°
2026-05-04 02:26 35.73464 -78.97414 4250 ft 229 kts 44°
2026-05-04 02:26 35.74585 -78.96035 3952 ft 223 kts 44°
2026-05-04 02:27 35.75654 -78.94721 3644 ft 211 kts 44°
2026-05-04 02:27 35.76657 -78.93485 3367 ft 201 kts 44°
2026-05-04 02:27 35.77624 -78.92291 3098 ft 193 kts 44°
2026-05-04 02:27 35.78560 -78.91140 2843 ft 187 kts 44°
2026-05-04 02:28 35.79465 -78.90027 2594 ft 180 kts 45°
2026-05-04 02:28 35.80335 -78.88956 2353 ft 173 kts 45°
2026-05-04 02:28 35.81133 -78.87973 2119 ft 153 kts 45°
2026-05-04 02:28 35.81863 -78.87075 1914 ft 144 kts 46°
2026-05-04 02:29 35.82552 -78.86226 1738 ft 137 kts 46°
2026-05-04 02:29 35.83215 -78.85408 1558 ft 133 kts 46°
2026-05-04 02:29 35.83852 -78.84624 1380 ft 128 kts 46°
2026-05-04 02:29 35.84471 -78.83859 1210 ft 124 kts 47°
2026-05-04 02:30 35.85072 -78.83119 1068 ft 120 kts 45°
2026-05-04 02:30 35.85687 -78.82399 926 ft 123 kts 46°
2026-05-04 02:30 35.86281 -78.81651 798 ft 121 kts 47°
2026-05-04 02:30 35.86865 -78.80916 655 ft 118 kts 46°
2026-05-04 02:31 35.87431 -78.80219 485 ft 114 kts 47°
2026-05-04 02:31 35.87954 -78.79557 420 ft 87 kts 45°
2026-05-04 02:31 35.88258 -78.79186 420 ft 48 kts 47°
2026-05-04 02:31 35.88483 -78.78908 417 ft 46 kts 45°
2026-05-04 02:32 35.88559 -78.78706 420 ft 15 kts 124°
2026-05-04 02:32 35.88542 -78.78682 423 ft 0 kts 133°